Temperature
20 21 21 22 22 23 23 23 23 23 23 23 24 24 25 24 23 24 23 23 23 22 22 21 20 20 20 19 19 18 18 18 17 17 16 16 16 15 15 14 14 14 14 13
21 21 22 22 22 22 23 23 23 23 23 23 24 24 25 24 24 23 24 23 23 22 22 21 20 20 20 19 19 18 18 18 17 17 16 16 16 15 15 14 14 14 14 13
21 22 22 22 22 22 22 23 23 23 23 23 24 24 25 25 24 23 23 23 23 22 22 21 20 20 20 19 19 19 18 18 18 17 16 16 16 15 15 14 14 14 14 13
21 22 22 22 22 23 22 23 23 23 23 24 24 24 25 25 24 24 23 23 23 22 21 21 20 20 20 19 19 19 18 18 18 17 17 16 16 15 15 14 14 14 14 13
21 22 22 22 22 22 22 22 23 23 24 24 24 25 25 25 24 24 24 23 22 22 21 21 20 20 20 19 19 19 18 18 18 17 17 16 16 15 15 14 14 14 14 13
21 22 22 22 22 22 22 23 23 23 24 24 24 25 24 25 24 24 24 23 22 22 21 21 20 20 19 19 19 19 19 18 18 17 17 16 16 15 15 14 14 14 14 13
21 21 22 22 22 22 23 23 23 23 23 24 24 24 24 24 24 24 24 23 22 21 21 21 20 20 20 20 19 19 19 18 18 17 17 16 16 15 15 14 14 14 14 14
22 21 22 22 23 23 23 24 24 23 24 24 24 24 24 24 23 22 22 22 21 21 21 20 20 20 20 20 19 19 19 18 18 17 17 16 16 15 15 15 14 14 14 14
23 23 23 23 23 24 24 24 25 25 25 24 24 24 24 23 23 23 22 22 21 21 20 20 20 20 20 20 20 19 19 18 18 17 17 16 16 15 15 15 14 14 14 14
24 23 23 23 23 23 24 24 24 25 24 23 24 24 24 23 23 23 22 22 21 20 20 20 20 20 20 20 20 19 19 18 18 17 17 16 16 15 15 15 15 14 14 14
25 24 23 23 23 24 23 24 24 25 25 24 23 24 24 23 23 23 22 21 20 20 19 19 19 19 19 19 19 19 19 18 18 17 17 16 16 16 15 15 15 14 14 14
24 25 24 24 24 24 24 25 25 25 24 24 24 23 23 22 22 22 21 20 20 19 19 19 19 19 19 19 19 19 18 18 18 17 17 17 16 16 15 15 15 14 14 14
24 25 24 24 24 24 24 23 24 25 25 25 24 23 22 22 22 21 20 20 19 19 18 18 19 19 19 19 19 19 18 18 18 17 17 17 16 16 15 15 15 15 14 14
22 25 25 24 24 24 24 23 23 25 25 24 24 24 23 22 22 21 20 19 19 18 18 18 18 18 18 18 18 18 18 18 18 17 17 17 16 16 16 15 15 15 14 14
24 25 24 24 24 24 24 23 23 24 25 25 24 23 23 22 21 20 19 19 18 18 17 17 17 18 18 18 18 18 18 18 17 17 17 16 16 16 16 15 15 15 15 14
24 24 24 23 23 23 23 23 23 23 23 23 23 23 22 21 21 20 19 19 18 18 17 17 17 17 17 17 18 18 18 17 17 17 16 16 16 16 16 15 15 15 15 15
23 24 24 24 23 23 23 23 23 23 23 23 23 23 22 21 20 20 19 18 18 17 17 17 17 17 17 17 17 17 17 17 17 16 16 16 16 16 16 15 15 15 15 15
23 24 24 24 23 22 23 22 22 22 22 22 22 21 21 20 19 18 18 18 17 17 16 16 16 16 17 17 17 17 17 16 16 16 16 16 16 16 15 15 15 15 15 14
21 22 23 23 23 23 22 21 21 22 21 21 21 21 20 19 19 19 17 16 16 16 16 16 16 16 16 16 16 16 16 16 16 16 15 15 15 15 15 15 15 15 14 14
20 21 23 22 22 22 22 21 20 22 21 20 20 20 19 20 21 20 16 16 16 16 16 16 16 16 16 16 16 16 16 15 15 15 15 15 15 15 15 15 14 14 14 14
20 21 21 22 22 23 20 19 20 21 22 19 19 19 19 19 20 17 16 15 15 15 15 16 15 15 15 15 15 15 15 15 15 15 14 14 14 14 14 14 14 14 14 13
22 21 21 22 22 21 18 19 21 21 19 18 18 18 17 17 16 15 15 15 15 15 15 15 15 15 15 15 15 14 14 14 14 14 14 14 14 14 14 14 14 13 13 13
20 21 21 21 20 18 17 18 17 17 17 17 17 16 16 15 15 15 14 14 14 15 15 15 14 14 14 14 14 14 14 14 14 14 14 14 14 13 13 13 13 13 13 13
18 17 18 19 18 17 16 15 15 16 16 15 15 15 15 15 14 14 14 14 14 14 14 14 14 14 13 13 13 13 13 13 13 13 13 13 13 13 13 13 13 12 12 12
17 17 18 19 17 16 15 15 15 14 14 14 14 14 14 14 14 14 14 13 13 13 13 13 13 13 13 13 13 12 12 12 12 12 12 12 12 12 12 12 12 12 12 12
17 17 18 19 17 17 16 14 14 14 14 13 13 13 13 13 13 13 13 13 13 12 12 12 12 12 12 12 12 12 12 12 12 12 12 11 11 11 11 11 12 12 12 12
Wind_Speed
8 8 10 11 10 3 7 8 7 5 3 5 6 5 4 4 6 6 6 6 7 7 8 8 9 9 9 8 8 7 7 6 5 3 2 1 1 1 1 1 2 2 3 4
8 8 7 7 7 5 6 7 6 4 3 4 4 4 3 4 5 4 5 5 6 6 7 9 9 9 9 9 8 8 7 7 6 4 2 1 0 1 1 1 1 2 3 4
6 5 6 7 8 8 6 5 5 4 4 4 3 3 4 4 4 3 3 4 4 5 6 8 9 9 8 8 8 7 7 7 6 5 3 2 1 2 1 1 1 2 3 3
4 4 7 8 7 7 5 3 3 4 5 3 3 4 5 5 5 4 4 4 4 4 6 7 8 8 8 8 7 7 7 7 6 6 4 3 2 1 1 1 1 2 2 3
4 6 7 7 5 5 3 3 3 3 3 4 2 3 5 5 4 4 4 4 3 4 5 6 7 7 7 7 7 7 7 6 6 6 5 4 3 2 1 2 2 2 2 2
4 3 3 3 4 4 5 6 5 4 4 4 2 2 5 4 2 3 3 3 3 4 4 5 5 5 6 6 6 6 7 6 6 6 6 5 4 3 2 2 2 3 2 2
6 5 4 4 6 6 6 6 5 6 5 4 2 2 4 5 3 2 2 2 3 4 4 5 5 6 6 6 7 7 7 7 7 7 6 6 5 4 4 3 3 3 3 3
8 7 6 5 4 5 6 5 2 4 6 6 4 4 5 5 4 3 3 3 4 4 3 3 4 4 5 6 7 7 7 7 7 7 6 6 5 4 3 4 4 4 3 3
6 6 5 4 2 2 4 3 2 1 4 5 5 5 4 4 5 5 5 5 4 4 3 2 2 2 3 4 5 7 7 7 7 7 6 6 6 5 4 4 4 4 4 4
3 7 6 5 4 1 2 2 3 3 5 5 6 5 3 3 4 4 4 5 5 4 4 3 2 2 2 2 3 5 6 7 6 6 6 5 6 5 5 5 5 5 4 4
3 5 7 6 4 4 4 3 2 1 1 3 5 4 3 2 3 4 5 5 5 4 4 3 2 2 1 2 2 4 5 6 6 6 6 6 6 5 5 5 5 5 5 4
2 3 7 5 2 1 3 2 4 2 3 1 2 4 4 2 3 3 4 5 5 5 5 4 4 3 2 1 1 2 4 5 5 5 6 6 6 6 6 6 6 6 5 5
3 4 7 7 6 5 3 2 2 1 3 3 3 5 5 4 4 4 4 5 5 5 5 5 4 4 2 1 0 1 3 4 4 5 5 6 6 6 6 6 6 6 6 6
3 3 4 4 3 5 5 4 4 5 4 4 3 5 5 4 4 4 4 5 5 5 5 4 4 3 3 2 1 1 2 2 3 4 5 6 6 6 7 7 6 7 7 6
3 3 2 2 3 3 3 5 6 5 4 4 4 4 3 3 4 4 4 5 5 5 5 5 4 3 3 2 2 1 1 1 2 3 4 5 5 5 6 6 7 7 7 7
1 3 4 4 3 3 3 4 6 5 3 3 4 3 3 4 5 5 4 4 4 4 4 4 4 4 3 3 2 2 1 1 1 2 3 3 4 5 5 6 6 7 7 7
2 4 5 5 4 4 6 5 7 5 4 5 5 3 5 5 5 4 4 4 3 4 4 4 4 4 3 3 3 2 2 1 1 2 2 3 3 4 5 6 6 7 7 7
3 4 4 4 6 8 1 3 3 5 3 2 2 5 6 5 5 4 4 3 4 4 4 4 4 4 4 4 3 2 2 1 1 2 3 3 4 4 5 5 6 7 7 7
4 5 5 5 7 5 3 4 4 5 3 2 4 5 6 6 6 5 4 4 3 4 4 4 4 4 4 4 4 3 2 2 2 3 4 4 4 4 5 5 6 7 7 8
4 5 6 6 7 6 3 4 3 4 4 2 4 6 6 6 4 2 2 3 3 4 4 4 4 4 5 5 4 3 3 3 4 4 5 5 5 5 5 6 6 6 7 8
6 6 8 9 7 4 3 3 5 7 2 4 4 5 5 4 1 3 3 3 3 4 4 4 4 4 5 5 4 4 4 5 6 6 6 6 6 6 6 6 6 6 7 7
7 7 8 7 8 5 4 5 5 2 6 6 5 4 4 3 4 3 3 3 3 3 4 4 4 4 4 5 5 5 6 6 6 6 6 6 7 6 6 7 7 7 7 8
4 3 3 3 1 5 5 4 3 4 5 5 4 4 4 3 2 2 1 2 2 3 3 4 4 4 4 5 5 6 7 7 7 7 7 7 8 7 7 7 8 8 7 8
3 1 3 3 3 5 4 4 4 4 4 4 3 3 2 2 1 1 0 0 1 2 3 4 4 5 6 6 6 7 7 7 7 7 7 7 8 8 8 7 7 8 8 8
3 4 4 4 4 5 4 4 3 4 4 4 3 2 1 1 0 1 1 1 2 2 3 4 5 5 7 7 7 7 8 8 8 9 8 8 8 8 8 8 8 9 10 9
5 5 5 4 5 4 5 4 4 3 3 2 2 1 1 0 1 2 2 2 2 3 4 4 5 6 7 8 8 8 8 9 9 9 9 8 8 8 8 9 9 10 12 12
Wind_Direction
172 182 184 185 195 201 184 187 178 164 165 203 213 228 222 199 202 206 200 201 208 205 192 186 187 189 195 197 196 189 188 183 181 179 194 204 217 238 269 317 338 335 337 339
171 186 179 174 190 199 187 184 170 154 171 209 220 236 220 196 207 214 208 200 197 191 183 179 186 189 195 196 196 195 193 188 185 184 194 206 238 274 311 300 313 331 335 335
168 140 162 178 186 188 184 183 163 155 165 183 226 187 169 159 168 177 194 197 192 189 185 178 185 190 194 197 197 197 193 186 184 180 177 171 181 228 221 259 302 329 330 333
166 155 172 180 183 190 163 170 180 183 186 155 214 146 127 138 142 157 176 184 182 175 178 177 182 190 195 197 196 198 191 188 182 182 193 204 233 276 305 299 306 307 313 328
145 163 172 175 172 189 128 138 169 182 178 162 189 163 118 123 131 147 164 170 170 169 175 179 186 193 196 194 193 194 189 188 183 189 192 216 240 274 289 281 285 294 310 320
115 152 177 156 143 169 145 143 142 178 199 165 134 159 106 102 98 113 136 150 156 158 164 173 179 188 192 190 188 189 189 190 186 194 202 217 233 249 263 270 286 288 297 312
139 152 162 172 158 168 198 188 167 171 174 134 107 130 96 64 39 43 92 127 140 148 160 166 174 186 189 190 189 190 192 194 194 201 210 218 226 238 249 267 275 286 298 310
147 152 173 186 201 179 194 227 208 164 150 134 150 129 94 48 39 58 80 97 111 125 143 159 175 186 194 196 192 195 198 200 198 206 214 220 221 234 251 257 274 278 291 308
148 133 146 175 211 220 186 212 317 127 134 142 132 125 111 70 74 76 81 86 89 98 116 137 154 174 191 196 197 201 204 206 204 209 216 222 225 233 246 255 265 274 280 296
163 139 146 155 172 83 308 188 203 198 161 148 142 143 126 95 76 82 84 84 84 89 100 108 123 143 168 183 194 199 206 212 211 213 216 220 228 232 244 255 261 269 278 286
210 152 146 168 197 180 176 184 195 159 195 171 154 130 71 90 89 96 90 84 81 77 75 73 80 97 119 142 170 193 204 212 213 215 218 219 224 230 237 245 254 261 271 273
212 180 152 150 134 255 222 217 216 195 148 181 156 117 80 84 86 93 89 83 78 74 73 71 68 70 76 109 178 197 209 213 215 219 221 226 228 229 236 243 248 254 264 268
191 195 161 157 165 169 173 190 225 208 170 188 186 128 105 104 104 93 87 83 79 74 70 68 62 58 52 42 244 225 224 224 218 217 224 229 232 236 243 250 251 254 260 265
248 221 222 193 147 162 167 172 197 214 208 188 181 139 130 116 113 100 92 87 80 72 65 57 50 45 35 24 348 279 253 239 225 219 227 235 242 245 249 252 252 252 257 261
249 211 166 105 100 159 179 187 195 216 236 225 174 166 149 129 123 111 104 95 82 67 56 45 35 28 23 16 4 333 286 252 231 226 235 246 250 249 252 252 250 250 253 257
260 197 179 175 164 186 199 201 197 206 214 197 178 176 122 121 120 114 108 94 79 62 48 38 30 23 14 9 1 353 326 280 240 243 257 268 270 261 256 254 253 254 251 253
200 209 220 213 181 209 225 219 205 193 196 201 207 170 143 135 126 115 102 92 74 53 38 28 22 18 8 3 2 356 337 311 264 269 280 285 280 275 268 260 255 252 250 250
222 210 224 222 203 230 128 85 174 174 166 195 149 139 152 140 124 105 81 76 63 48 35 25 16 13 7 4 360 352 355 342 312 301 298 298 291 285 281 271 261 257 257 252
235 212 215 226 226 228 176 159 171 177 158 162 163 148 143 139 136 110 70 52 45 35 27 21 13 12 11 9 357 348 347 334 318 306 299 297 292 290 283 275 270 263 261 258
185 218 223 218 226 232 174 143 184 200 184 140 164 157 156 171 188 134 75 56 50 41 30 21 16 15 14 8 356 346 340 330 317 308 301 297 291 284 279 277 276 270 260 259
177 195 216 222 229 230 95 136 175 203 174 134 151 156 165 178 74 86 93 76 64 52 35 22 16 12 3 356 349 338 334 326 317 309 301 294 288 281 278 278 276 274 267 262
200 196 205 214 224 218 112 156 185 99 96 126 131 137 144 123 90 96 95 83 60 44 31 19 11 6 359 353 343 335 331 323 316 308 299 293 288 282 278 275 274 273 272 265
214 230 217 215 157 83 118 117 88 106 115 114 119 120 125 127 123 111 99 76 45 25 16 5 359 353 351 348 338 328 329 323 315 309 302 297 293 285 280 276 274 271 268 267
174 183 190 179 155 132 127 116 112 107 104 100 107 117 128 135 139 161 168 8 2 359 357 350 345 343 341 338 331 324 324 320 312 308 305 301 297 292 287 280 274 271 269 268
184 184 197 197 163 154 159 149 128 113 103 97 93 101 112 131 246 262 261 291 313 322 329 332 332 332 328 328 327 326 325 319 311 308 307 304 301 296 288 281 275 270 268 267
202 206 211 215 186 187 178 168 152 141 126 110 97 75 39 323 283 279 276 282 292 304 313 318 323 322 323 324 323 324 322 316 311 310 309 305 300 296 290 288 285 270 263 260
Height
1491 1491 1491 1490 1489 1489 1489 1491 1493 1493 1494 1495 1495 1494 1494 1497 1499 1500 1501 1503 1506 1508 1511 1513 1515 1517 1519 1521 1523 1524 1525 1526 1526 1526 1526 1526 1526 1525 1525 1524 1522 1521 1520 1519
1490 1489 1487 1488 1490 1491 1490 1492 1494 1494 1494 1494 1493 1493 1492 1495 1497 1499 1500 1501 1504 1506 1509 1511 1513 1515 1518 1520 1521 1523 1524 1524 1525 1525 1525 1525 1525 1524 1524 1522 1522 1521 1519 1518
1485 1487 1488 1490 1491 1492 1491 1492 1493 1495 1494 1493 1494 1494 1491 1492 1496 1498 1500 1501 1503 1505 1507 1510 1512 1514 1516 1518 1520 1521 1522 1523 1523 1524 1524 1524 1524 1523 1523 1522 1521 1520 1519 1517
1486 1487 1489 1489 1490 1490 1494 1492 1493 1494 1493 1495 1493 1499 1491 1490 1493 1496 1498 1500 1502 1504 1506 1508 1510 1513 1514 1516 1518 1520 1521 1522 1522 1522 1523 1523 1523 1523 1523 1522 1521 1520 1518 1517
1486 1487 1488 1489 1489 1490 1491 1491 1491 1492 1492 1493 1492 1492 1492 1490 1493 1494 1497 1499 1501 1503 1505 1507 1509 1511 1513 1515 1516 1518 1519 1520 1521 1521 1522 1522 1522 1522 1522 1521 1520 1519 1518 1516
1487 1488 1488 1488 1490 1491 1492 1492 1493 1491 1490 1499 1495 1493 1498 1492 1492 1493 1495 1498 1500 1502 1504 1506 1508 1510 1512 1513 1515 1516 1517 1518 1519 1520 1520 1521 1521 1521 1520 1520 1519 1519 1518 1516
1489 1488 1489 1490 1490 1492 1490 1491 1500 1501 1501 1500 1494 1494 1498 1493 1494 1495 1496 1498 1500 1501 1503 1505 1506 1508 1510 1511 1513 1514 1516 1517 1518 1518 1519 1520 1520 1520 1520 1519 1519 1518 1517 1516
1487 1492 1487 1487 1486 1486 1487 1486 1495 1502 1501 1497 1494 1495 1494 1494 1496 1496 1497 1498 1499 1501 1502 1504 1505 1507 1508 1510 1511 1513 1514 1515 1516 1517 1518 1518 1518 1518 1518 1518 1517 1517 1516 1515
1481 1487 1485 1486 1486 1484 1486 1486 1483 1485 1489 1494 1494 1493 1492 1494 1495 1496 1497 1498 1499 1501 1502 1503 1505 1506 1507 1508 1509 1511 1512 1514 1515 1515 1516 1517 1517 1517 1517 1516 1516 1515 1515 1514
1474 1484 1485 1487 1487 1487 1484 1483 1485 1486 1497 1503 1501 1497 1496 1495 1495 1496 1497 1499 1500 1501 1502 1503 1504 1505 1506 1507 1508 1509 1510 1512 1513 1514 1515 1515 1515 1515 1515 1515 1514 1514 1513 1512
1474 1478 1486 1486 1486 1485 1487 1487 1484 1485 1486 1496 1505 1503 1494 1495 1496 1497 1499 1500 1501 1502 1503 1503 1504 1505 1505 1506 1507 1508 1509 1510 1511 1512 1513 1513 1513 1513 1513 1513 1512 1512 1512 1511
1475 1473 1481 1484 1483 1482 1481 1481 1481 1487 1491 1490 1493 1503 1495 1497 1499 1499 1500 1502 1502 1503 1503 1503 1504 1504 1505 1505 1506 1506 1507 1508 1509 1510 1510 1511 1511 1511 1511 1511 1511 1510 1510 1509
1475 1474 1484 1489 1489 1485 1483 1485 1483 1481 1484 1488 1494 1502 1496 1497 1499 1501 1502 1502 1503 1503 1503 1503 1503 1503 1504 1504 1505 1505 1506 1506 1507 1507 1508 1508 1509 1509 1509 1509 1509 1508 1508 1507
1477 1471 1476 1485 1481 1479 1483 1486 1485 1482 1484 1488 1490 1493 1495 1497 1499 1501 1502 1503 1503 1503 1503 1503 1503 1503 1503 1503 1503 1504 1504 1504 1505 1505 1505 1506 1506 1506 1506 1506 1506 1506 1505 1505
1475 1473 1475 1477 1479 1480 1482 1484 1485 1484 1482 1485 1487 1491 1493 1496 1499 1501 1502 1503 1503 1503 1503 1503 1502 1502 1502 1502 1502 1502 1502 1502 1502 1503 1503 1503 1504 1503 1503 1503 1502 1502 1502 1502
1475 1475 1476 1481 1481 1481 1484 1484 1485 1486 1485 1486 1489 1492 1494 1497 1499 1501 1502 1503 1503 1503 1503 1503 1502 1502 1501 1501 1501 1501 1501 1500 1500 1500 1501 1501 1500 1500 1500 1500 1499 1499 1499 1498
1475 1474 1478 1479 1481 1482 1485 1482 1483 1485 1485 1485 1487 1491 1494 1497 1499 1500 1502 1502 1503 1503 1503 1502 1502 1501 1501 1501 1500 1500 1499 1499 1499 1499 1498 1498 1497 1497 1497 1497 1496 1495 1495 1495
1476 1475 1476 1478 1483 1492 1483 1481 1482 1484 1486 1487 1488 1491 1494 1497 1499 1501 1502 1502 1502 1502 1502 1501 1501 1500 1500 1500 1499 1498 1498 1497 1497 1497 1496 1495 1495 1494 1493 1493 1492 1492 1492 1491
1479 1477 1478 1479 1482 1482 1483 1483 1483 1484 1488 1489 1489 1492 1495 1497 1498 1500 1502 1502 1502 1502 1501 1501 1500 1500 1499 1498 1497 1497 1496 1495 1495 1494 1493 1493 1492 1491 1490 1489 1488 1488 1487 1487
1481 1478 1477 1480 1484 1485 1479 1481 1483 1485 1487 1489 1489 1491 1494 1495 1493 1498 1501 1501 1501 1500 1500 1500 1499 1499 1498 1496 1495 1495 1494 1493 1492 1491 1491 1490 1489 1488 1487 1486 1485 1484 1483 1482
1478 1479 1478 1477 1478 1474 1480 1482 1484 1487 1485 1488 1490 1491 1493 1494 1495 1499 1499 1499 1500 1499 1499 1498 1498 1497 1496 1495 1493 1492 1492 1490 1489 1488 1487 1486 1486 1484 1483 1482 1481 1480 1479 1478
1471 1474 1475 1476 1479 1480 1482 1482 1482 1483 1486 1488 1490 1492 1494 1495 1497 1497 1498 1498 1498 1498 1498 1497 1496 1495 1494 1492 1491 1490 1489 1487 1486 1485 1484 1483 1482 1481 1479 1478 1477 1476 1475 1474
1472 1472 1470 1472 1477 1481 1482 1483 1485 1486 1487 1489 1490 1492 1494 1495 1496 1497 1497 1497 1497 1497 1496 1495 1494 1493 1492 1491 1489 1488 1486 1484 1482 1481 1479 1478 1477 1476 1475 1474 1472 1471 1470 1469
1474 1478 1476 1476 1478 1482 1484 1485 1486 1487 1488 1490 1491 1492 1493 1494 1495 1495 1496 1496 1495 1495 1494 1493 1493 1491 1490 1488 1487 1485 1483 1481 1479 1477 1476 1474 1473 1471 1470 1469 1467 1466 1465 1464
1474 1476 1474 1474 1479 1482 1484 1485 1486 1487 1488 1489 1490 1491 1492 1492 1493 1493 1494 1494 1494 1493 1492 1491 1490 1489 1487 1486 1484 1482 1480 1478 1476 1474 1472 1470 1468 1466 1465 1463 1462 1460 1459 1458
1473 1473 1472 1471 1475 1477 1481 1484 1485 1486 1487 1488 1489 1490 1490 1491 1491 1491 1492 1491 1491 1491 1490 1489 1487 1486 1484 1483 1481 1479 1477 1475 1473 1471 1468 1466 1464 1461 1459 1457 1455 1453 1452 1451